Flag for U.S.A. Weather past 2 weeks in Wainwright, Alaska, U.S.A.

Now
39 °F

Low clouds.


Feels Like: 32 °F
Forecast: 36 / 43 °F
Wind: 10 mph from North

Location: Wainwright Distant Early Warning

Current Time: Aug 1, 2015 at 2:57:12 AM

Latest Report: Aug 1, 2015 at 1:53 AM


Visibility: 10 mi

Pressure: 29.84 "Hg

Humidity: 96%

Dew point: 38 °F

Location of WainwrightLocation

Historic Weather in Wainwright — Graph

°F

Wainwright temperature yesterday

Maximum temperature yesterday: 51 °F (at 12:53 AM)
Minimum temperature yesterday: 41 °F (at 7:53 PM)
Average temperature yesterday: 46 °F

Past Weeks' High & Low Weather Summary

 TemperatureHumidityPressure
High63 °F (Jul 22, 3:53 PM)100% (Jul 19, 3:53 AM)30.16 "Hg (Jul 19, 3:53 AM)
Low35 °F (Jul 24, 5:53 AM)48% (Jul 22, 5:53 PM)29.57 "Hg (Jul 17, 3:53 PM)
Average43 °F86%29.91 "Hg
* Reported Jul 17 1:53 AM — Aug 1 1:53 AM, Wainwright, Weather by CustomWeather, © 2015

Note: Actual official high and low records may vary slightly from our data, if they occured in-between our weather recording intervals... More about our weather records

Advertising

Wainwright weather history for previous 24 hours

 ConditionsComfort  
Time TempWeatherWind HumidityBarometerVisibility
1:53 AM
Sat, Aug 1
39 °FLow clouds.10 mph96%29.84 "Hg10 mi
12:53 AM39 °FLow clouds.10 mph96%29.81 "Hg9 mi
11:53 PM
Fri, Jul 31
41 °FFog.13 mph96%29.78 "Hg0 mi
10:53 PM41 °FFog.12 mph96%29.75 "Hg0 mi
9:53 PM41 °FLow clouds.14 mph96%29.74 "HgN/A
8:53 PM41 °FLow clouds.16 mph96%29.72 "HgN/A
7:53 PM41 °FLow clouds.17 mph96%29.71 "HgN/A
6:53 PM42 °FFog.18 mph96%29.70 "Hg1 mi
5:53 PM43 °FFog.22 mph97%29.68 "Hg0 mi
4:53 PM44 °FFog.20 mph93%29.67 "Hg1 mi
3:53 PM45 °FFog.22 mph93%29.67 "Hg6 mi
2:57 PM45 °FFog.21 mph97%29.68 "Hg3 mi
1:53 PM49 °FLight rain. Fog.22 mph93%29.69 "Hg2 mi
12:53 PM48 °FLight rain. Fog.18 mph93%29.70 "Hg2 mi
11:53 AM49 °FLight rain. Overcast.16 mph90%29.73 "Hg10 mi
10:53 AM48 °FLight rain. Mostly cloudy.18 mph86%29.75 "Hg10 mi
9:53 AM46 °FLight rain. Mostly cloudy.16 mph86%29.77 "Hg10 mi
8:53 AM50 °FCloudy.16 mph68%29.78 "Hg10 mi
7:53 AM49 °FPartly sunny.14 mph74%29.79 "Hg10 mi
6:53 AM47 °FSunny.13 mph83%29.80 "Hg10 mi
5:53 AM45 °FSunny.15 mph74%29.81 "Hg10 mi
4:53 AM50 °FSunny.10 mph80%29.83 "Hg10 mi
2:53 AM51 °FSunny.10 mph80%29.86 "Hg10 mi
Weather by CustomWeather, © 2015

See weather overviewHow to use our weather pages